Date String (YYYY-MM-DD hh:mm:ss) UTC,Instrument flags,Ambient pressure (hPa),Sample flow (lpm),Bypass flow (lpm),Sample temperature (°C),Ambient temperature (°C),ASC tube jacket temperature (°C),LED temperature (°C),Box temperature (°C),Sample RH (%),Span deviation,Mass concentration (μg/m³),Mass concentration (μg/m³),Mass concentration (μg/m³)
DateTimeUTC,F1_M11,P_M11,Q1_M11,Q2_M11,T1_M11,T2_M11,T3_M11,T4_M11,T5_M11,U1_M11,ZSPAN_M11,X0_M11,X2_M11,X1_M11
2022-07-01 22:00:00,,0827.7,4.99,0.00,29.4,28.3,00.0,38.0,31.4,25.5,0000.0,0016.20,0004.85,0003.89
2022-07-01 22:01:00,,0827.7,5.00,0.00,29.4,28.4,00.0,38.1,31.4,25.5,0000.0,0015.78,0004.86,0003.89
2022-07-01 22:02:00,,0827.7,5.01,0.00,29.4,28.4,00.0,38.1,31.5,25.7,0000.0,0015.90,0004.87,0003.87
2022-07-01 22:03:00,,0827.7,5.01,0.00,29.4,27.8,00.0,38.0,31.4,25.2,0000.0,0014.69,0004.87,0003.86
2022-07-01 22:04:00,,0827.7,5.00,0.00,29.4,27.2,00.0,38.0,31.2,25.6,0000.0,0014.07,0004.86,0003.84
2022-07-01 22:05:00,,0827.7,5.00,0.00,29.3,27.1,00.0,38.0,31.2,25.6,0000.0,0013.25,0004.82,0003.82
2022-07-01 22:06:00,,0827.7,5.00,0.00,29.3,27.2,00.0,38.0,31.1,25.4,0000.0,0013.15,0004.80,0003.80
2022-07-01 22:07:00,,0827.7,5.00,0.00,29.3,27.3,00.0,38.0,31.1,25.4,0000.0,0013.10,0004.83,0003.79
2022-07-01 22:08:00,,0827.7,5.01,0.00,29.3,27.5,00.0,38.0,31.2,25.5,0000.0,0013.12,0004.87,0003.78
2022-07-01 22:09:00,,0827.6,5.00,0.00,29.3,27.7,00.0,38.0,31.2,25.9,0000.0,0012.23,0004.81,0003.77
2022-07-01 22:10:00,,0827.5,5.00,0.00,29.3,27.9,00.0,38.0,31.3,26.1,0000.0,0011.82,0004.77,0003.77
2022-07-01 22:11:00,,0827.6,5.00,0.00,29.3,28.1,00.0,38.0,31.3,25.9,0000.0,0011.12,0004.82,0003.79
2022-07-01 22:12:00,,0827.6,4.99,0.00,29.4,28.2,00.0,38.1,31.4,25.7,0000.0,0010.93,0004.82,0003.80
2022-07-01 22:13:00,,0827.6,4.99,0.00,29.4,28.4,00.0,38.1,31.4,26.0,0000.0,0010.53,0004.81,0003.82
2022-07-01 22:14:00,,0827.6,5.01,0.00,29.4,28.5,00.0,38.1,31.5,25.9,0000.0,0010.63,0004.82,0003.83
2022-07-01 22:15:00,,0827.6,5.00,0.00,29.5,28.4,00.0,38.1,31.5,25.9,0000.0,0011.13,0004.88,0003.85
2022-07-01 22:16:00,,0827.6,5.00,0.00,29.5,27.7,00.0,38.1,31.4,26.0,0000.0,0011.13,0004.90,0003.87
2022-07-01 22:17:00,,0827.6,4.99,0.00,29.4,27.1,00.0,38.0,31.2,26.2,0000.0,0011.11,0004.94,0003.90
2022-07-01 22:18:00,,0827.6,5.00,0.00,29.4,27.1,00.0,38.0,31.2,26.7,0000.0,0011.04,0004.93,0003.92
2022-07-01 22:19:00,,0827.6,5.00,0.00,29.3,27.2,00.0,38.0,31.1,26.3,0000.0,0010.19,0004.91,0003.94
2022-07-01 22:20:00,,0827.6,5.00,0.00,29.3,27.4,00.0,38.0,31.1,26.3,0000.0,0010.54,0004.92,0003.95
2022-07-01 22:21:00,,0827.6,5.00,0.00,29.3,27.6,00.0,38.0,31.2,26.1,0000.0,0011.24,0004.94,0003.97
2022-07-01 22:22:00,,0827.5,5.00,0.00,29.3,27.7,00.0,38.0,31.2,26.2,0000.0,0011.29,0004.89,0003.98
2022-07-01 22:23:00,,0827.5,5.00,0.00,29.3,27.9,00.0,38.0,31.3,26.3,0000.0,0012.19,0004.89,0003.98
2022-07-01 22:24:00,,0827.5,5.00,0.00,29.4,28.1,00.0,38.0,31.3,26.7,0000.0,0012.83,0004.93,0003.99
2022-07-01 22:25:00,,0827.5,5.00,0.00,29.4,28.3,00.0,38.1,31.4,26.2,0000.0,0012.81,0004.92,0004.00
2022-07-01 22:26:00,,0827.5,5.02,0.00,29.4,28.4,00.0,38.1,31.5,26.2,0000.0,0012.49,0004.91,0003.99
2022-07-01 22:27:00,,0827.5,5.00,0.00,29.5,28.5,00.0,38.1,31.5,26.6,0000.0,0013.42,0004.95,0003.99
2022-07-01 22:28:00,,0827.5,5.01,0.00,29.5,27.9,00.0,38.1,31.4,25.8,0000.0,0013.67,0004.99,0003.98
2022-07-01 22:29:00,,0827.5,5.00,0.00,29.4,27.3,00.0,38.0,31.3,25.9,0000.0,0013.69,0004.98,0003.97
2022-07-01 22:30:00,,0827.4,4.99,0.00,29.4,27.1,00.0,38.0,31.2,26.1,0000.0,0013.77,0004.99,0003.96
2022-07-01 22:31:00,,0827.4,5.01,0.00,29.3,27.2,00.0,38.0,31.1,26.3,0000.0,0013.43,0005.01,0003.96
2022-07-01 22:32:00,,0827.5,5.00,0.00,29.3,27.3,00.0,38.0,31.1,26.3,0000.0,0012.76,0004.98,0003.96
2022-07-01 22:33:00,,0827.4,5.00,0.00,29.3,27.5,00.0,38.0,31.2,26.4,0000.0,0012.79,0004.99,0003.96
2022-07-01 22:34:00,,0827.4,5.01,0.00,29.3,27.7,00.0,38.0,31.2,26.4,0000.0,0012.41,0005.01,0003.95
2022-07-01 22:35:00,,0827.5,5.01,0.00,29.3,27.9,00.0,38.0,31.3,26.7,0000.0,0011.93,0004.97,0003.93
2022-07-01 22:36:00,,0827.5,5.00,0.00,29.3,28.1,00.0,38.1,31.3,26.7,0000.0,0011.88,0004.99,0003.93
2022-07-01 22:37:00,,0827.4,5.00,0.00,29.4,28.2,00.0,38.1,31.4,25.8,0000.0,0012.39,0004.98,0003.93
2022-07-01 22:38:00,,0827.4,5.00,0.00,29.4,28.4,00.0,38.1,31.4,25.9,0000.0,0011.86,0004.94,0003.92
2022-07-01 22:39:00,,0827.4,5.01,0.00,29.5,28.5,00.0,38.1,31.5,26.2,0000.0,0012.05,0004.91,0003.92
2022-07-01 22:40:00,,0827.4,5.00,0.00,29.5,28.5,00.0,38.1,31.5,25.6,0000.0,0012.15,0004.94,0003.93
2022-07-01 22:41:00,,0827.4,5.01,0.00,29.5,27.7,00.0,38.1,31.4,26.2,0000.0,0012.83,0004.93,0003.93
2022-07-01 22:42:00,,0827.4,4.99,0.00,29.4,27.2,00.0,38.1,31.3,25.9,0000.0,0013.73,0004.88,0003.92
2022-07-01 22:43:00,,0827.3,5.00,0.00,29.4,27.1,00.0,38.1,31.2,25.4,0000.0,0014.58,0004.88,0003.92
2022-07-01 22:44:00,,0827.2,4.99,0.00,29.3,27.2,00.0,38.0,31.2,26.1,0000.0,0014.64,0004.89,0003.91
2022-07-01 22:45:00,,0827.2,4.99,0.00,29.3,27.4,00.0,38.0,31.2,26.7,0000.0,0014.03,0004.86,0003.92
2022-07-01 22:46:00,,0827.3,5.00,0.00,29.3,27.6,00.0,38.0,31.2,26.0,0000.0,0013.79,0004.87,0003.92
2022-07-01 22:47:00,,0827.2,5.00,0.00,29.3,27.8,00.0,38.1,31.3,25.0,0000.0,0013.50,0004.79,0003.90
2022-07-01 22:48:00,,0827.2,5.00,0.00,29.3,28.0,00.0,38.1,31.3,25.4,0000.0,0012.79,0004.76,0003.90
2022-07-01 22:49:00,,0827.2,5.00,0.00,29.4,28.1,00.0,38.1,31.4,25.0,0000.0,0012.29,0004.76,0003.90
